STARLINK-2026 (47644 NORAD) Tracking and Keplerian Element Data

This shows tracking and keplerian element data for the satellite.

Feedback or suggestion? Click here.




ElementValue
Catalog47644
NameSTARLINK-2026
Epoch Orbit183
Epoch Day56.91667824
Epoch Year2021
RAAN53.6569
Inclination53.0492
Eccentricity0.0001213
Argument of Perigee57.7611
Mean Anonmoly38.5706
Mean Motion15.79656953
Decay Rate-0.01069053
L11 47644U 21012AA 21056.91667824 -.01069053 00000-0 -63560-2 0 9996
L22 47644 53.0492 53.6569 0001213 57.7611 38.5706 15.79656953 1835

Live tracking and technical data element details for STARLINK-2026 (NORAD 47644). STARLINK-2026 can be tracked NOW for your location showing map with azimuth and elevation plus other details from your city location.

Track the satellite on the map from your city or location and see movement details for azimuth, elevation, latitude, longitude, range, height, and movement on the map or in text.







IsCatalogInMostPopularTable: catalog: 47644, numindb: 1
Update: records affected: 1



GetName: 47644 STARLINK-2026

Hit Count: updated at: Fri, 26 Feb 2021 09:43:56 GMT